Year,Month,Day,Hour,Minute,Value (Times are PST for temperature in C)
2008,01,31,00,00,3.20
2008,01,31,00,01,3.20
2008,01,31,00,02,3.20
2008,01,31,00,03,3.20
2008,01,31,00,04,3.20
2008,01,31,00,05,3.30
2008,01,31,00,06,3.30
2008,01,31,00,07,3.30
2008,01,31,00,08,3.30
2008,01,31,00,09,3.30
2008,01,31,00,10,3.40
2008,01,31,00,11,3.40
2008,01,31,00,12,3.40
2008,01,31,00,13,3.50
2008,01,31,00,14,3.50
2008,01,31,00,15,3.50
2008,01,31,00,16,3.50
2008,01,31,00,17,3.40
2008,01,31,00,18,3.40
2008,01,31,00,19,3.40
2008,01,31,00,20,3.40
2008,01,31,00,21,3.30
2008,01,31,00,22,3.30
2008,01,31,00,23,3.30
2008,01,31,00,24,3.30
2008,01,31,00,25,3.30
2008,01,31,00,26,3.30
2008,01,31,00,27,3.30
2008,01,31,00,28,3.30
2008,01,31,00,29,3.30
2008,01,31,00,30,3.30
2008,01,31,00,31,3.20
2008,01,31,00,32,3.20
2008,01,31,00,33,3.20
2008,01,31,00,34,3.20
2008,01,31,00,35,3.20
2008,01,31,00,36,3.10
2008,01,31,00,37,3.10
2008,01,31,00,38,3.10
2008,01,31,00,39,3.10
2008,01,31,00,40,3.00
2008,01,31,00,41,3.00
2008,01,31,00,42,3.00
2008,01,31,00,43,3.00
2008,01,31,00,44,3.00
2008,01,31,00,45,2.90
2008,01,31,00,46,2.90
2008,01,31,00,47,2.90
2008,01,31,00,48,2.90
2008,01,31,00,49,2.90
2008,01,31,00,50,2.90
2008,01,31,00,51,2.90
2008,01,31,00,52,2.90
2008,01,31,00,53,2.90
2008,01,31,00,54,2.90
2008,01,31,00,55,2.90
2008,01,31,00,56,2.90
2008,01,31,00,57,2.90
2008,01,31,00,58,2.90
2008,01,31,00,59,2.90
2008,01,31,01,00,2.90
2008,01,31,01,01,2.90
2008,01,31,01,02,2.90
2008,01,31,01,03,2.90
2008,01,31,01,04,2.90
2008,01,31,01,05,2.90
2008,01,31,01,06,2.90
2008,01,31,01,07,2.90
2008,01,31,01,08,2.90
2008,01,31,01,09,2.90
2008,01,31,01,10,2.90
2008,01,31,01,11,2.90
2008,01,31,01,12,2.90
2008,01,31,01,13,2.90
2008,01,31,01,14,2.90
2008,01,31,01,15,2.90
2008,01,31,01,16,2.90
2008,01,31,01,17,2.90
2008,01,31,01,18,3.00
2008,01,31,01,19,3.00
2008,01,31,01,20,3.00
2008,01,31,01,21,3.00
2008,01,31,01,22,3.00
2008,01,31,01,23,3.00
2008,01,31,01,24,3.00
2008,01,31,01,25,3.00
2008,01,31,01,26,3.00
2008,01,31,01,27,3.00
2008,01,31,01,28,3.00
2008,01,31,01,29,3.00
2008,01,31,01,30,3.00
2008,01,31,01,31,3.00
2008,01,31,01,32,3.00
2008,01,31,01,33,3.00
2008,01,31,01,34,3.00
2008,01,31,01,35,3.00
2008,01,31,01,36,3.10
2008,01,31,01,37,3.10
2008,01,31,01,38,3.10
2008,01,31,01,39,3.10
2008,01,31,01,40,3.10
2008,01,31,01,41,3.10
2008,01,31,01,42,3.10
2008,01,31,01,43,3.10
2008,01,31,01,44,3.10
2008,01,31,01,45,3.10
2008,01,31,01,46,3.10
2008,01,31,01,47,3.10
2008,01,31,01,48,3.00
2008,01,31,01,49,3.00
2008,01,31,01,50,3.00
2008,01,31,01,51,3.00
2008,01,31,01,52,3.00
2008,01,31,01,53,3.00
2008,01,31,01,54,3.00
2008,01,31,01,55,3.00
2008,01,31,01,56,3.00
2008,01,31,01,57,3.00
2008,01,31,01,58,3.00
2008,01,31,01,59,3.00
2008,01,31,02,00,3.10
2008,01,31,02,01,3.00
2008,01,31,02,02,3.00
2008,01,31,02,03,3.00
2008,01,31,02,04,3.00
2008,01,31,02,05,3.00
2008,01,31,02,06,3.00
2008,01,31,02,07,3.00
2008,01,31,02,08,2.90
2008,01,31,02,09,2.90
2008,01,31,02,10,2.90
2008,01,31,02,11,2.90
2008,01,31,02,12,2.90
2008,01,31,02,13,2.90
2008,01,31,02,14,2.90
2008,01,31,02,15,2.90
2008,01,31,02,16,2.90
2008,01,31,02,17,2.90
2008,01,31,02,18,2.90
2008,01,31,02,19,2.90
2008,01,31,02,20,2.90
2008,01,31,02,21,2.90
2008,01,31,02,22,2.90
2008,01,31,02,23,2.90
2008,01,31,02,24,2.90
2008,01,31,02,25,2.90
2008,01,31,02,26,2.90
2008,01,31,02,27,2.90
2008,01,31,02,28,2.90
2008,01,31,02,29,2.90
2008,01,31,02,30,2.90
2008,01,31,02,31,2.90
2008,01,31,02,32,2.90
2008,01,31,02,33,2.90
2008,01,31,02,34,2.90
2008,01,31,02,35,3.00
2008,01,31,02,36,3.00
2008,01,31,02,37,3.00
2008,01,31,02,38,2.90
2008,01,31,02,39,2.90
2008,01,31,02,40,2.90
2008,01,31,02,41,2.90
2008,01,31,02,42,2.90
2008,01,31,02,43,2.90
2008,01,31,02,44,2.90
2008,01,31,02,45,2.90
2008,01,31,02,46,2.90
2008,01,31,02,47,2.90
2008,01,31,02,48,2.90
2008,01,31,02,49,2.90
2008,01,31,02,50,2.90
2008,01,31,02,51,2.90
2008,01,31,02,52,3.00
2008,01,31,02,53,3.00
2008,01,31,02,54,3.00
2008,01,31,02,55,3.10
2008,01,31,02,56,3.10
2008,01,31,02,57,3.10
2008,01,31,02,58,3.10
2008,01,31,02,59,3.10
2008,01,31,03,00,3.10
2008,01,31,03,01,3.10
2008,01,31,03,02,3.10
2008,01,31,03,03,3.10
2008,01,31,03,04,3.20
2008,01,31,03,05,3.20
2008,01,31,03,06,3.10
2008,01,31,03,07,3.10
2008,01,31,03,08,3.10
2008,01,31,03,09,3.10
2008,01,31,03,10,3.10
2008,01,31,03,11,3.10
2008,01,31,03,12,3.10
2008,01,31,03,13,3.20
2008,01,31,03,14,3.20
2008,01,31,03,15,3.30
2008,01,31,03,16,3.30
2008,01,31,03,17,3.30
2008,01,31,03,18,3.30
2008,01,31,03,19,3.30
2008,01,31,03,20,3.40
2008,01,31,03,21,3.40
2008,01,31,03,22,3.40
2008,01,31,03,23,3.40
2008,01,31,03,24,3.40
2008,01,31,03,25,3.40
2008,01,31,03,26,3.30
2008,01,31,03,27,3.30
2008,01,31,03,28,3.30
2008,01,31,03,29,3.30
2008,01,31,03,30,3.30
2008,01,31,03,31,3.30
2008,01,31,03,32,3.20
2008,01,31,03,33,3.20
2008,01,31,03,34,3.20
2008,01,31,03,35,3.20
2008,01,31,03,36,3.10
2008,01,31,03,37,3.10
2008,01,31,03,38,3.10
2008,01,31,03,39,3.10
2008,01,31,03,40,3.10
2008,01,31,03,41,3.10
2008,01,31,03,42,3.10
2008,01,31,03,43,3.10
2008,01,31,03,44,3.10
2008,01,31,03,45,3.10
2008,01,31,03,46,3.10
2008,01,31,03,47,3.10
2008,01,31,03,48,3.10
2008,01,31,03,49,3.00
2008,01,31,03,50,3.10
2008,01,31,03,51,3.10
2008,01,31,03,52,3.10
2008,01,31,03,53,3.10
2008,01,31,03,54,3.10
2008,01,31,03,55,3.10
2008,01,31,03,56,3.10
2008,01,31,03,57,3.10
2008,01,31,03,58,3.00
2008,01,31,03,59,3.00
2008,01,31,04,00,3.00
2008,01,31,04,01,3.00
2008,01,31,04,02,2.90
2008,01,31,04,03,2.90
2008,01,31,04,04,2.80
2008,01,31,04,05,2.80
2008,01,31,04,06,2.70
2008,01,31,04,07,2.60
2008,01,31,04,08,2.50
2008,01,31,04,09,2.40
2008,01,31,04,10,2.40
2008,01,31,04,11,2.30
2008,01,31,04,12,2.20
2008,01,31,04,13,2.10
2008,01,31,04,14,1.90
2008,01,31,04,15,1.80
2008,01,31,04,16,1.70
2008,01,31,04,17,1.60
2008,01,31,04,18,1.50
2008,01,31,04,19,1.50
2008,01,31,04,20,1.40
2008,01,31,04,21,1.30
2008,01,31,04,22,1.30
2008,01,31,04,23,1.30
2008,01,31,04,24,1.30
2008,01,31,04,25,1.20
2008,01,31,04,26,1.20
2008,01,31,04,27,1.10
2008,01,31,04,28,1.10
2008,01,31,04,29,1.00
2008,01,31,04,30,1.00
2008,01,31,04,31,0.90
2008,01,31,04,32,0.90
2008,01,31,04,33,0.90
2008,01,31,04,34,0.80
2008,01,31,04,35,0.80
2008,01,31,04,36,0.80
2008,01,31,04,37,0.80
2008,01,31,04,38,0.80
2008,01,31,04,39,0.80
2008,01,31,04,40,0.80
2008,01,31,04,41,0.80
2008,01,31,04,42,0.80
2008,01,31,04,43,0.80
2008,01,31,04,44,0.80
2008,01,31,04,45,0.80
2008,01,31,04,46,0.80
2008,01,31,04,47,0.80
2008,01,31,04,48,0.80
2008,01,31,04,49,0.80
2008,01,31,04,50,0.80
2008,01,31,04,51,0.80
2008,01,31,04,52,0.80
2008,01,31,04,53,0.80
2008,01,31,04,54,0.80
2008,01,31,04,55,0.80
2008,01,31,04,56,0.80
2008,01,31,04,57,0.80
2008,01,31,04,58,0.80
2008,01,31,04,59,0.80
2008,01,31,05,00,0.80
2008,01,31,05,01,0.80
2008,01,31,05,02,0.80
2008,01,31,05,03,0.80
2008,01,31,05,04,0.80
2008,01,31,05,05,0.80
2008,01,31,05,06,0.80
2008,01,31,05,07,0.80
2008,01,31,05,08,0.80
2008,01,31,05,09,0.80
2008,01,31,05,10,0.80
2008,01,31,05,11,0.90
2008,01,31,05,12,0.90
2008,01,31,05,13,0.90
2008,01,31,05,14,0.90
2008,01,31,05,15,0.90
2008,01,31,05,16,0.90
2008,01,31,05,17,0.90
2008,01,31,05,18,0.90
2008,01,31,05,19,0.90
2008,01,31,05,20,0.90
2008,01,31,05,21,0.90
2008,01,31,05,22,0.80
2008,01,31,05,23,0.80
2008,01,31,05,24,0.80
2008,01,31,05,25,0.80
2008,01,31,05,26,0.80
2008,01,31,05,27,0.80
2008,01,31,05,28,0.80
2008,01,31,05,29,0.80
2008,01,31,05,30,0.80
2008,01,31,05,31,0.80
2008,01,31,05,32,0.80
2008,01,31,05,33,0.80
2008,01,31,05,34,0.80
2008,01,31,05,35,0.80
2008,01,31,05,36,0.80
2008,01,31,05,37,0.80
2008,01,31,05,38,0.80
2008,01,31,05,39,0.80
2008,01,31,05,40,0.80
2008,01,31,05,41,0.80
2008,01,31,05,42,0.80
2008,01,31,05,43,0.90
2008,01,31,05,44,0.90
2008,01,31,05,45,1.00
2008,01,31,05,46,1.00
2008,01,31,05,47,1.10
2008,01,31,05,48,1.10
2008,01,31,05,49,1.20
2008,01,31,05,50,1.20
2008,01,31,05,51,1.30
2008,01,31,05,52,1.30
2008,01,31,05,53,1.30
2008,01,31,05,54,1.30
2008,01,31,05,55,1.30
2008,01,31,05,56,1.30
2008,01,31,05,57,1.30
2008,01,31,05,58,1.30
2008,01,31,05,59,1.30
2008,01,31,06,00,1.30
2008,01,31,06,01,1.30
2008,01,31,06,02,1.30
2008,01,31,06,03,1.30
2008,01,31,06,04,1.30
2008,01,31,06,05,1.30
2008,01,31,06,06,1.30
2008,01,31,06,07,1.30
2008,01,31,06,08,1.30
2008,01,31,06,09,1.30
2008,01,31,06,10,1.30
2008,01,31,06,11,1.30
2008,01,31,06,12,1.30
2008,01,31,06,13,1.30
2008,01,31,06,14,1.30
2008,01,31,06,15,1.30
2008,01,31,06,16,1.30
2008,01,31,06,17,1.30
2008,01,31,06,18,1.30
2008,01,31,06,19,1.30
2008,01,31,06,20,1.30
2008,01,31,06,21,1.30
2008,01,31,06,22,1.30
2008,01,31,06,23,1.30
2008,01,31,06,24,1.30
2008,01,31,06,25,1.30
2008,01,31,06,26,1.30
2008,01,31,06,27,1.30
2008,01,31,06,28,1.30
2008,01,31,06,29,1.30
2008,01,31,06,30,1.30
2008,01,31,06,31,1.30
2008,01,31,06,32,1.30
2008,01,31,06,33,1.30
2008,01,31,06,34,1.30
2008,01,31,06,35,1.30
2008,01,31,06,36,1.30
2008,01,31,06,37,1.30
2008,01,31,06,38,1.30
2008,01,31,06,39,1.30
2008,01,31,06,40,1.30
2008,01,31,06,41,1.30
2008,01,31,06,42,1.30
2008,01,31,06,43,1.30
2008,01,31,06,44,1.30
2008,01,31,06,45,1.30
2008,01,31,06,46,1.30
2008,01,31,06,47,1.30
2008,01,31,06,48,1.30
2008,01,31,06,49,1.30
2008,01,31,06,50,1.30
2008,01,31,06,51,1.30
2008,01,31,06,52,1.30
2008,01,31,06,53,1.30
2008,01,31,06,54,1.30
2008,01,31,06,55,1.30
2008,01,31,06,56,1.30
2008,01,31,06,57,1.30
2008,01,31,06,58,1.30
2008,01,31,06,59,1.20
2008,01,31,07,00,1.20
2008,01,31,07,01,1.20
2008,01,31,07,02,1.20
2008,01,31,07,03,1.20
2008,01,31,07,04,1.20
2008,01,31,07,05,1.20
2008,01,31,07,06,1.30
2008,01,31,07,07,1.30
2008,01,31,07,08,1.30
2008,01,31,07,09,1.30
2008,01,31,07,10,1.30
2008,01,31,07,11,1.30
2008,01,31,07,12,1.30
2008,01,31,07,13,1.30
2008,01,31,07,14,1.30
2008,01,31,07,15,1.30
2008,01,31,07,16,1.30
2008,01,31,07,17,1.30
2008,01,31,07,18,1.30
2008,01,31,07,19,1.30
2008,01,31,07,20,1.30
2008,01,31,07,21,1.40
2008,01,31,07,22,1.40
2008,01,31,07,23,1.40
2008,01,31,07,24,1.50
2008,01,31,07,25,1.50
2008,01,31,07,26,1.50
2008,01,31,07,27,1.50
2008,01,31,07,28,1.50
2008,01,31,07,29,1.40
2008,01,31,07,30,1.40
2008,01,31,07,31,1.40
2008,01,31,07,32,1.40
2008,01,31,07,33,1.40
2008,01,31,07,34,1.40
2008,01,31,07,35,1.40
2008,01,31,07,36,1.50
2008,01,31,07,37,1.40
2008,01,31,07,38,1.40
2008,01,31,07,39,1.40
2008,01,31,07,40,1.40
2008,01,31,07,41,1.40
2008,01,31,07,42,1.50
2008,01,31,07,43,1.50
2008,01,31,07,44,1.60
2008,01,31,07,45,1.60
2008,01,31,07,46,1.60
2008,01,31,07,47,1.60
2008,01,31,07,48,1.60
2008,01,31,07,49,1.70
2008,01,31,07,50,1.70
2008,01,31,07,51,1.70
2008,01,31,07,52,1.70
2008,01,31,07,53,1.70
2008,01,31,07,54,1.80
2008,01,31,07,55,1.80
2008,01,31,07,56,1.80
2008,01,31,07,57,1.80
2008,01,31,07,58,1.80
2008,01,31,07,59,1.80
2008,01,31,08,00,1.80
2008,01,31,08,01,1.80
2008,01,31,08,02,1.80
2008,01,31,08,03,1.80
2008,01,31,08,04,1.80
2008,01,31,08,05,1.90
2008,01,31,08,06,1.90
2008,01,31,08,07,1.90
2008,01,31,08,08,1.90
2008,01,31,08,09,1.80
2008,01,31,08,10,1.90
2008,01,31,08,11,1.90
2008,01,31,08,12,1.90
2008,01,31,08,13,1.90
2008,01,31,08,14,1.90
2008,01,31,08,15,1.90
2008,01,31,08,16,1.90
2008,01,31,08,17,1.90
2008,01,31,08,18,1.90
2008,01,31,08,19,1.90
2008,01,31,08,20,1.90
2008,01,31,08,21,1.90
2008,01,31,08,22,1.90
2008,01,31,08,23,1.90
2008,01,31,08,24,2.00
2008,01,31,08,25,2.00
2008,01,31,08,26,2.00
2008,01,31,08,27,2.00
2008,01,31,08,28,2.00
2008,01,31,08,29,2.00
2008,01,31,08,30,2.00
2008,01,31,08,31,2.00
2008,01,31,08,32,2.00
2008,01,31,08,33,2.00
2008,01,31,08,34,2.00
2008,01,31,08,35,2.00
2008,01,31,08,36,2.00
2008,01,31,08,37,2.00
2008,01,31,08,38,2.00
2008,01,31,08,39,2.00
2008,01,31,08,40,2.00
2008,01,31,08,41,1.90
2008,01,31,08,42,1.90
2008,01,31,08,43,1.90
2008,01,31,08,44,1.90
2008,01,31,08,45,1.90
2008,01,31,08,46,1.90
2008,01,31,08,47,1.90
2008,01,31,08,48,1.90
2008,01,31,08,49,1.90
2008,01,31,08,50,1.90
2008,01,31,08,51,1.90
2008,01,31,08,52,1.90
2008,01,31,08,53,1.90
2008,01,31,08,54,2.00
2008,01,31,08,55,2.00
2008,01,31,08,56,2.00
2008,01,31,08,57,2.00
2008,01,31,08,58,2.10
2008,01,31,08,59,2.10
2008,01,31,09,00,2.10
2008,01,31,09,01,2.10
2008,01,31,09,02,2.10
2008,01,31,09,03,2.20
2008,01,31,09,04,2.20
2008,01,31,09,05,2.20
2008,01,31,09,06,2.20
2008,01,31,09,07,2.20
2008,01,31,09,08,2.20
2008,01,31,09,09,2.20
2008,01,31,09,10,2.20
2008,01,31,09,11,2.30
2008,01,31,09,12,2.30
2008,01,31,09,13,2.20
2008,01,31,09,14,2.20
2008,01,31,09,15,2.20
2008,01,31,09,16,2.20
2008,01,31,09,17,2.20
2008,01,31,09,18,2.20
2008,01,31,09,19,2.20
2008,01,31,09,20,2.20
2008,01,31,09,21,2.20
2008,01,31,09,22,2.20
2008,01,31,09,23,2.20
2008,01,31,09,24,2.20
2008,01,31,09,25,2.10
2008,01,31,09,26,2.10
2008,01,31,09,27,2.10
2008,01,31,09,28,2.10
2008,01,31,09,29,2.10
2008,01,31,09,30,2.10
2008,01,31,09,31,2.10
2008,01,31,09,32,2.10
2008,01,31,09,33,2.10
2008,01,31,09,34,2.10
2008,01,31,09,35,2.10
2008,01,31,09,36,2.10
2008,01,31,09,37,2.10
2008,01,31,09,38,2.10
2008,01,31,09,39,2.20
2008,01,31,09,40,2.20
2008,01,31,09,41,2.20
2008,01,31,09,42,2.20
2008,01,31,09,43,2.20
2008,01,31,09,44,2.20
2008,01,31,09,45,2.20
2008,01,31,09,46,2.30
2008,01,31,09,47,2.30
2008,01,31,09,48,2.30
2008,01,31,09,49,2.30
2008,01,31,09,50,2.30
2008,01,31,09,51,2.30
2008,01,31,09,52,2.30
2008,01,31,09,53,2.40
2008,01,31,09,54,2.40
2008,01,31,09,55,2.40
2008,01,31,09,56,2.40
2008,01,31,09,57,2.40
2008,01,31,09,58,2.40
2008,01,31,09,59,2.50
2008,01,31,10,00,2.50
2008,01,31,10,01,2.50
2008,01,31,10,02,2.50
2008,01,31,10,03,2.50
2008,01,31,10,04,2.50
2008,01,31,10,05,2.50
2008,01,31,10,06,2.50
2008,01,31,10,07,2.50
2008,01,31,10,08,2.60
2008,01,31,10,09,2.60
2008,01,31,10,10,2.60
2008,01,31,10,11,2.60
2008,01,31,10,12,2.60
2008,01,31,10,13,2.60
2008,01,31,10,14,2.60
2008,01,31,10,15,2.60
2008,01,31,10,16,2.60
2008,01,31,10,17,2.60
2008,01,31,10,18,2.60
2008,01,31,10,19,2.60
2008,01,31,10,20,2.60
2008,01,31,10,21,2.60
2008,01,31,10,22,2.60
2008,01,31,10,23,2.60
2008,01,31,10,24,2.60
2008,01,31,10,25,2.60
2008,01,31,10,26,2.60
2008,01,31,10,27,2.60
2008,01,31,10,28,2.60
2008,01,31,10,29,2.60
2008,01,31,10,30,2.60
2008,01,31,10,31,2.60
2008,01,31,10,32,2.60
2008,01,31,10,33,2.60
2008,01,31,10,34,2.70
2008,01,31,10,35,2.70
2008,01,31,10,36,2.70
2008,01,31,10,37,2.70
2008,01,31,10,38,2.60
2008,01,31,10,39,2.60
2008,01,31,10,40,2.50
2008,01,31,10,41,2.40
2008,01,31,10,42,2.40
2008,01,31,10,43,2.40
2008,01,31,10,44,2.30
2008,01,31,10,45,2.30
2008,01,31,10,46,2.30
2008,01,31,10,47,2.30
2008,01,31,10,48,2.30
2008,01,31,10,49,2.40
2008,01,31,10,50,2.40
2008,01,31,10,51,2.40
2008,01,31,10,52,2.40
2008,01,31,10,53,2.40
2008,01,31,10,54,2.40
2008,01,31,10,55,2.50
2008,01,31,10,56,2.40
2008,01,31,10,57,2.40
2008,01,31,10,58,2.40
2008,01,31,10,59,2.40
2008,01,31,11,00,2.50
2008,01,31,11,01,2.50
2008,01,31,11,02,2.50
2008,01,31,11,03,2.50
2008,01,31,11,04,2.50
2008,01,31,11,05,2.50
2008,01,31,11,06,2.50
2008,01,31,11,07,2.60
2008,01,31,11,08,2.60
2008,01,31,11,09,2.60
2008,01,31,11,10,2.60
2008,01,31,11,11,2.60
2008,01,31,11,12,2.60
2008,01,31,11,13,2.60
2008,01,31,11,14,2.60
2008,01,31,11,15,2.60
2008,01,31,11,16,2.60
2008,01,31,11,17,2.60
2008,01,31,11,18,2.60
2008,01,31,11,19,2.60
2008,01,31,23,12,1.30
2008,01,31,23,13,1.30
2008,01,31,23,14,1.30
2008,01,31,23,15,1.30
2008,01,31,23,16,1.30
2008,01,31,23,17,1.30
2008,01,31,23,18,1.30
2008,01,31,23,19,1.30
2008,01,31,23,20,1.30
2008,01,31,23,21,1.30
2008,01,31,23,22,1.30
2008,01,31,23,23,1.30
2008,01,31,23,24,1.30
2008,01,31,23,25,1.30
2008,01,31,23,26,1.30
2008,01,31,23,27,1.30
2008,01,31,23,28,1.30
2008,01,31,23,29,1.30
2008,01,31,23,30,1.30
2008,01,31,23,31,1.30
2008,01,31,23,32,1.30
2008,01,31,23,33,1.30
2008,01,31,23,34,1.30
2008,01,31,23,35,1.30
2008,01,31,23,36,1.20
2008,01,31,23,37,1.20
2008,01,31,23,38,1.20
2008,01,31,23,39,1.20
2008,01,31,23,40,1.20
2008,01,31,23,41,1.10
2008,01,31,23,42,1.10
2008,01,31,23,43,1.10
2008,01,31,23,44,1.10
2008,01,31,23,45,1.10
2008,01,31,23,46,1.10
2008,01,31,23,47,1.00
2008,01,31,23,48,1.00
2008,01,31,23,49,1.00
2008,01,31,23,50,1.00
2008,01,31,23,51,1.00
2008,01,31,23,52,0.90
2008,01,31,23,53,0.90
2008,01,31,23,54,0.90
2008,01,31,23,55,0.90
2008,01,31,23,56,0.90
2008,01,31,23,57,0.80
2008,01,31,23,58,0.80
2008,01,31,23,59,0.80
